Wind_Speed
30 30 30 31 30 30 30 31 30 29 29 28 27 27 26 25 25 25 25 25 25 25 24 24 23 22 21 20 19 19 19 18 17 16 16 17 17 17 17 17 16 16 15
34 34 34 34 34 34 34 34 34 33 32 32 31 29 28 28 28 27 27 27 27 27 27 27 26 25 25 24 23 22 22 21 20 20 19 19 19 19 19 19 19 19 18
37 37 37 37 37 37 38 37 37 37 36 35 34 32 31 30 30 30 29 30 30 29 29 29 29 29 29 27 27 26 26 25 23 22 22 21 21 21 21 21 21 21 20
39 40 40 39 40 40 40 40 40 39 39 38 37 36 34 33 32 31 31 32 32 31 31 31 30 31 32 31 30 30 29 29 27 26 25 24 24 23 23 23 23 22 22
39 40 41 41 42 42 42 43 42 41 40 39 37 36 35 35 34 32 32 33 33 32 32 32 32 32 33 33 33 33 32 32 31 29 28 26 26 25 25 25 25 24 24
38 39 40 40 41 43 43 44 44 42 40 38 38 37 36 36 37 35 34 34 34 33 31 32 33 33 33 34 35 34 34 33 32 31 30 28 27 27 27 27 26 26 25
38 40 40 41 41 42 43 43 43 40 38 37 37 36 36 35 35 35 36 35 35 34 32 32 32 32 33 35 35 36 35 34 34 33 32 31 30 29 28 28 27 27 27
37 38 39 40 41 41 40 40 41 40 38 37 36 35 34 34 33 33 34 35 35 34 32 31 31 31 31 32 33 35 35 35 35 34 33 32 31 30 29 28 28 28 28
36 37 38 39 39 40 40 40 40 37 36 35 35 35 34 32 32 31 32 33 33 32 31 31 31 30 30 31 31 31 33 34 34 34 32 31 30 30 29 28 29 29 28
37 37 38 39 39 40 40 39 39 37 36 36 36 35 34 31 31 30 31 31 31 31 31 31 30 30 29 30 31 30 31 33 33 32 31 31 30 29 28 27 28 28 28
36 38 39 39 39 39 39 39 38 37 37 36 35 34 33 32 31 31 32 32 32 31 31 31 30 29 29 29 29 29 29 31 31 31 30 30 30 29 28 27 27 27 27
36 37 38 39 39 39 39 39 39 38 37 36 35 35 34 34 34 34 33 33 33 33 32 31 30 29 29 29 29 29 29 29 30 30 29 29 29 28 28 28 27 27 27
35 36 37 38 39 39 39 39 39 39 38 37 36 36 35 35 35 35 34 35 34 34 32 31 30 30 29 29 28 29 29 29 29 30 29 29 29 28 27 27 27 27 27
35 35 36 37 38 39 39 39 39 38 37 37 36 36 36 35 35 35 35 35 35 33 32 31 30 30 29 29 29 29 29 29 29 29 29 29 29 29 28 28 28 28 29
35 35 36 36 37 37 38 38 38 37 37 36 36 36 35 34 34 34 33 33 33 32 31 31 30 29 28 29 29 29 29 28 28 29 28 29 29 29 29 29 29 30 31
35 35 35 35 35 36 37 37 37 36 36 36 35 35 34 33 32 31 31 30 30 30 29 29 28 28 27 28 28 29 29 28 27 28 28 28 28 29 29 30 31 32 33
36 35 35 34 34 34 34 34 34 34 34 34 33 32 31 30 29 30 30 29 28 27 27 27 26 25 25 24 25 26 27 26 27 27 28 28 29 30 31 32 33 34 34
36 35 35 34 33 32 31 31 31 31 31 30 30 29 28 28 28 28 28 28 27 26 26 25 24 24 23 23 23 24 24 25 26 27 27 28 28 29 31 31 32 34 35
36 36 34 33 32 31 30 30 29 28 27 27 27 27 27 26 27 27 27 26 26 25 24 23 22 21 21 21 22 22 22 23 24 24 25 26 27 29 30 31 32 34 36
37 36 34 32 31 29 28 27 26 25 24 24 24 24 24 24 24 25 24 24 24 24 23 22 20 20 20 20 21 21 21 21 22 22 23 24 25 27 28 30 32 33 35
37 35 33 31 30 28 26 24 23 22 22 21 21 21 21 21 22 22 22 23 23 22 21 20 20 20 19 19 18 18 18 19 19 20 21 22 24 25 27 29 31 33 35
36 34 32 30 29 26 24 22 21 20 19 19 19 19 19 20 20 21 21 21 21 21 20 19 19 18 17 16 15 15 16 17 18 18 20 21 23 24 26 28 31 33 36
35 33 31 29 27 25 23 21 19 18 18 18 17 18 19 19 19 19 19 19 19 18 17 17 15 14 13 13 13 13 14 14 15 16 18 19 21 23 25 27 30 32 35
35 32 30 28 25 23 21 19 17 16 16 16 16 16 17 18 17 18 18 17 17 16 15 14 12 12 11 11 11 11 12 13 14 15 16 18 20 22 24 27 29 31 33
36 33 30 27 25 22 20 18 15 14 14 14 14 14 14 15 14 14 15 15 15 14 13 12 11 10 10 9 9 10 10 11 12 14 15 17 20 22 24 26 28 31 33
37 33 30 27 24 21 20 17 15 14 13 12 12 12 12 12 12 13 13 13 13 13 12 11 10 9 8 8 8 8 9 10 12 14 15 17 20 22 25 27 29 31 32
Wind_Direction
274 275 275 275 275 275 275 274 273 273 273 273 273 274 275 276 278 280 278 278 277 277 274 270 268 268 268 268 269 271 273 274 274 273 272 272 271 270 268 265 264 262 261
271 271 272 273 273 273 273 273 271 270 269 269 269 270 272 273 275 276 277 277 277 276 275 272 268 267 265 263 264 266 267 270 271 270 270 270 270 269 268 266 264 262 261
269 269 269 270 271 272 272 272 271 269 268 268 267 267 267 269 271 273 275 275 274 276 275 272 268 266 263 261 262 262 263 264 266 268 268 269 268 267 267 266 264 262 261
270 269 268 268 269 270 271 271 271 270 270 268 265 264 265 266 269 270 271 273 274 275 275 273 268 265 261 259 259 260 261 261 262 264 266 267 267 267 266 264 263 262 261
275 274 271 270 271 271 271 272 272 271 271 271 269 266 265 267 267 268 269 271 272 274 273 272 268 266 262 259 258 258 257 258 260 261 263 264 266 266 265 265 263 261 260
277 276 273 273 274 273 274 273 273 272 274 274 271 268 267 267 266 267 268 269 271 273 272 271 269 266 263 261 259 256 255 256 258 260 260 261 264 265 264 265 262 260 259
280 277 277 275 275 275 274 275 276 276 275 275 273 271 268 267 268 269 268 269 270 271 271 271 269 267 265 262 258 255 254 254 256 258 259 260 262 263 264 263 261 259 258
282 280 279 279 277 277 277 278 277 277 274 274 274 273 270 269 268 269 270 270 270 270 269 269 269 268 265 262 258 256 254 254 256 257 258 259 260 260 261 261 259 258 257
284 282 281 279 279 279 278 278 278 279 279 277 276 275 273 270 269 272 272 272 271 270 270 271 269 266 264 260 259 258 254 253 255 256 256 256 257 259 258 259 258 257 256
285 283 281 279 278 278 278 278 279 279 279 278 277 274 272 270 271 273 272 273 272 272 271 272 270 267 262 259 256 256 255 254 254 253 254 255 256 255 255 256 256 256 256
288 284 281 280 279 279 278 278 277 278 278 277 276 275 274 274 273 274 274 275 273 271 271 270 269 267 262 259 255 254 255 254 253 252 252 253 253 251 252 253 254 254 254
291 287 284 281 279 279 278 277 277 276 277 276 275 274 273 273 273 272 272 272 272 271 270 268 267 266 262 259 255 253 253 252 253 250 249 250 250 250 250 252 252 252 252
295 291 287 284 281 279 278 277 276 276 276 274 273 273 272 272 271 270 270 270 269 269 268 268 266 265 262 258 255 253 253 251 251 248 247 248 248 249 249 250 249 249 251
298 294 290 286 283 280 278 277 276 276 275 274 273 272 272 271 270 269 269 267 266 267 267 265 265 263 260 257 256 254 253 249 248 247 248 247 247 247 248 248 248 247 248
302 298 293 289 286 282 279 277 276 275 274 273 273 272 271 270 268 267 267 265 263 264 264 262 261 260 258 256 255 253 252 248 247 247 247 246 246 247 249 249 248 248 248
304 301 297 293 289 285 281 277 275 273 272 271 271 270 269 267 266 264 262 262 261 261 261 258 257 256 256 255 254 253 250 247 247 247 246 247 247 248 250 250 251 251 252
305 302 299 296 292 288 283 279 275 273 272 270 269 267 265 263 263 260 257 257 257 256 257 256 253 253 253 253 251 249 247 245 246 248 249 249 250 251 253 254 255 255 255
304 302 300 298 295 290 286 281 278 274 271 268 266 263 260 260 259 255 253 252 251 250 251 249 250 249 249 249 249 247 247 248 248 249 251 253 254 256 257 258 259 259 259
303 302 300 298 296 292 287 283 279 275 270 266 263 260 257 255 253 250 250 246 243 243 245 245 244 244 246 247 247 248 249 250 251 254 256 258 259 260 261 261 262 262 262
300 300 299 297 295 293 289 284 279 275 269 263 261 257 252 249 246 244 243 243 242 238 237 238 239 241 243 245 247 250 252 253 255 257 259 262 264 266 266 266 266 266 266
296 297 296 295 293 292 288 284 279 273 264 259 255 250 248 245 242 239 240 240 237 232 233 236 239 240 242 245 247 250 253 255 258 260 263 266 268 270 272 272 272 272 271
291 291 291 292 290 289 286 284 280 271 259 254 250 248 248 243 240 238 236 234 232 234 235 233 234 236 240 242 246 250 254 258 262 265 269 273 275 277 278 279 279 278 276
284 285 286 286 286 285 282 279 276 268 260 253 249 245 243 242 237 233 233 232 231 228 227 229 229 231 234 239 245 251 257 264 269 274 277 281 284 287 287 288 287 285 283
277 279 279 278 278 279 277 274 270 263 254 247 243 240 238 235 232 230 228 226 223 220 220 219 221 227 233 239 244 252 260 269 276 281 286 290 293 295 295 295 295 293 291
268 269 270 270 269 270 269 266 259 254 247 238 232 228 225 223 220 220 219 215 211 211 211 212 217 223 230 237 247 257 267 275 283 289 294 298 301 303 304 303 302 300 298
258 259 261 261 259 259 257 252 249 247 237 227 223 218 211 209 206 206 205 203 201 204 205 205 209 216 226 239 251 264 276 285 292 298 302 305 308 310 310 309 308 307 304
Height
5879 5878 5877 5876 5875 5874 5873 5872 5871 5871 5870 5869 5868 5868 5867 5867 5866 5865 5864 5863 5863 5863 5863 5863 5864 5864 5864 5865 5866 5866 5867 5868 5868 5869 5870 5870 5871 5872 5872 5873 5873 5874 5874
5872 5871 5870 5869 5868 5866 5865 5864 5863 5862 5861 5861 5860 5860 5860 5859 5859 5858 5858 5857 5856 5856 5856 5856 5857 5857 5858 5859 5860 5861 5862 5863 5864 5864 5865 5866 5867 5867 5868 5869 5869 5870 5871
5863 5862 5861 5860 5859 5857 5857 5856 5854 5853 5852 5852 5852 5852 5852 5851 5851 5851 5850 5850 5849 5849 5849 5849 5850 5850 5851 5852 5854 5855 5856 5857 5858 5859 5860 5861 5861 5862 5863 5864 5865 5866 5867
5853 5853 5852 5851 5850 5849 5848 5846 5845 5844 5844 5843 5843 5843 5843 5843 5843 5843 5842 5842 5842 5842 5841 5842 5842 5843 5844 5845 5846 5848 5849 5850 5852 5853 5854 5855 5856 5857 5858 5859 5860 5861 5862
5844 5844 5843 5842 5841 5840 5839 5838 5837 5836 5835 5835 5835 5835 5835 5835 5835 5835 5835 5834 5834 5834 5834 5834 5834 5835 5836 5837 5838 5840 5841 5843 5845 5847 5848 5849 5850 5851 5851 5853 5854 5855 5856
5836 5835 5834 5833 5832 5831 5830 5828 5828 5827 5826 5825 5826 5826 5827 5827 5827 5827 5826 5826 5826 5826 5826 5826 5826 5827 5827 5828 5830 5831 5833 5835 5837 5839 5840 5842 5843 5844 5845 5846 5847 5849 5850
5828 5826 5825 5824 5823 5822 5821 5819 5818 5817 5817 5816 5816 5817 5817 5817 5817 5818 5817 5817 5818 5818 5818 5818 5818 5818 5819 5819 5821 5822 5824 5827 5829 5831 5832 5834 5835 5836 5838 5839 5840 5841 5843
5820 5818 5817 5815 5814 5813 5811 5810 5809 5808 5808 5807 5807 5807 5808 5809 5809 5808 5808 5808 5809 5809 5810 5810 5810 5810 5810 5811 5812 5813 5816 5818 5820 5822 5824 5825 5827 5828 5830 5831 5832 5834 5836
5811 5809 5808 5806 5805 5803 5802 5801 5800 5799 5799 5798 5798 5798 5798 5799 5799 5800 5800 5800 5800 5801 5801 5802 5802 5801 5802 5803 5804 5805 5807 5809 5812 5813 5815 5817 5819 5821 5822 5823 5824 5826 5828
5802 5800 5799 5797 5796 5794 5793 5792 5791 5790 5790 5790 5789 5788 5788 5789 5790 5791 5791 5791 5792 5792 5793 5793 5793 5793 5794 5795 5796 5797 5799 5801 5803 5805 5807 5809 5811 5813 5814 5815 5817 5818 5820
5793 5791 5789 5787 5786 5785 5783 5782 5781 5781 5780 5780 5780 5779 5779 5780 5781 5782 5783 5783 5783 5784 5784 5785 5785 5786 5786 5787 5788 5790 5791 5793 5795 5797 5799 5801 5803 5805 5806 5808 5809 5811 5812
5783 5781 5779 5777 5776 5775 5774 5772 5772 5771 5770 5770 5770 5770 5770 5771 5772 5773 5774 5774 5774 5775 5775 5776 5777 5777 5778 5779 5780 5782 5783 5785 5787 5789 5791 5793 5795 5797 5799 5800 5801 5803 5805
5774 5771 5769 5767 5765 5764 5763 5762 5761 5760 5760 5760 5760 5760 5761 5761 5762 5762 5763 5764 5764 5765 5766 5767 5768 5769 5770 5771 5773 5774 5776 5777 5779 5781 5783 5785 5788 5789 5791 5793 5794 5796 5797
5765 5762 5759 5757 5755 5753 5752 5750 5750 5749 5749 5749 5749 5750 5750 5751 5752 5752 5753 5754 5754 5755 5756 5758 5759 5760 5762 5763 5765 5766 5768 5769 5771 5773 5775 5777 5780 5782 5783 5785 5786 5788 5790
5756 5752 5749 5747 5744 5742 5741 5739 5739 5738 5738 5738 5739 5739 5740 5740 5741 5742 5742 5743 5745 5746 5747 5749 5750 5752 5753 5755 5756 5758 5760 5761 5763 5766 5767 5769 5772 5773 5775 5777 5778 5780 5782
5746 5743 5740 5737 5734 5732 5730 5729 5728 5727 5727 5727 5728 5728 5729 5729 5730 5731 5733 5734 5735 5737 5738 5740 5742 5744 5745 5747 5748 5750 5752 5754 5756 5758 5760 5762 5764 5765 5767 5769 5770 5772 5773
5737 5734 5730 5727 5724 5722 5719 5718 5717 5717 5717 5717 5717 5718 5718 5720 5721 5722 5723 5725 5727 5729 5730 5732 5734 5736 5737 5739 5741 5743 5744 5746 5749 5751 5752 5754 5756 5757 5759 5760 5762 5763 5764
5729 5725 5721 5718 5715 5712 5710 5709 5707 5706 5706 5707 5707 5708 5709 5710 5712 5713 5715 5717 5719 5721 5723 5724 5726 5728 5730 5732 5734 5736 5738 5740 5742 5744 5745 5747 5748 5749 5750 5751 5752 5753 5754
5720 5716 5713 5709 5706 5704 5701 5700 5698 5697 5697 5697 5698 5699 5700 5702 5704 5705 5707 5709 5711 5714 5716 5718 5720 5722 5724 5726 5728 5730 5732 5733 5735 5737 5738 5739 5740 5741 5742 5743 5743 5744 5744
5711 5707 5704 5701 5698 5696 5693 5691 5690 5689 5689 5690 5690 5691 5692 5694 5696 5698 5700 5702 5704 5707 5709 5712 5714 5716 5718 5720 5722 5724 5726 5727 5729 5730 5731 5732 5733 5733 5734 5734 5734 5734 5733
5702 5699 5696 5694 5691 5689 5686 5684 5683 5682 5682 5683 5683 5685 5686 5688 5690 5692 5694 5696 5698 5701 5704 5706 5709 5711 5713 5715 5717 5718 5720 5721 5722 5723 5724 5725 5725 5725 5725 5724 5724 5723 5722
5692 5690 5687 5686 5684 5682 5680 5678 5677 5676 5676 5677 5677 5679 5680 5682 5684 5686 5688 5691 5693 5696 5698 5701 5704 5706 5708 5710 5712 5713 5715 5716 5717 5718 5717 5717 5717 5717 5716 5715 5713 5712 5710
5681 5680 5679 5677 5676 5675 5673 5672 5671 5671 5671 5671 5672 5673 5675 5677 5679 5681 5683 5686 5688 5691 5694 5697 5699 5701 5703 5706 5707 5708 5709 5710 5711 5711 5711 5710 5709 5708 5707 5705 5703 5700 5698
5670 5670 5670 5669 5669 5668 5667 5666 5665 5665 5665 5666 5667 5669 5671 5672 5674 5676 5679 5681 5684 5687 5690 5693 5695 5698 5700 5701 5703 5704 5705 5705 5706 5705 5705 5704 5702 5700 5698 5695 5692 5689 5686
5659 5660 5660 5660 5661 5661 5661 5661 5660 5661 5661 5662 5663 5665 5667 5668 5670 5673 5675 5678 5681 5684 5687 5689 5692 5694 5696 5698 5699 5700 5700 5701 5701 5700 5699 5697 5695 5692 5689 5686 5683 5679 5675
5646 5649 5650 5651 5653 5654 5655 5655 5656 5656 5657 5658 5660 5662 5664 5665 5668 5670 5673 5675 5678 5681 5684 5687 5689 5691 5693 5694 5695 5696 5696 5696 5695 5694 5693 5691 5688 5685 5681 5678 5674 5670 5665